Weather Roundup
Issued by NWS

Home | Current Version | Previous Version | Text Only | Print | Product List | Glossary On
Versions: 1 2 3 4 5 6 7 8 9 10 11 12 13 14 15 16 17 18 19 20 21 22 23 24 25 26 27 28 29 30 31 32 33 34 35 36 37 38 39 40 41 42 43 44 45 46 47 48 49 50
000
NZUS93 KARX 011210
HRRWXR

CURRENT HOURLY OBSERVATIONS ACROSS
MUCH OF THE UPPER MISSISSIPPI VALLEY
NATIONAL WEATHER SERVICE LA CROSSE WI
700 AM CDT SUN MAY 01 2016


...SOUTHEAST MINNESOTA...


CITY           SKY/WX    TMP DP  RH WIND       PRES   REMARKS
ROCHESTER      CLOUDY    43  41  93 NE8       30.08R
ROCHESTER/MAYO CLOUDY    43  40  89 N9        30.09R
WINONA         CLOUDY    46  37  71 E3        30.10R
AUSTIN         CLOUDY    43  37  81 N9        30.06S
ALBERT LEA     CLOUDY    43  41  93 N9        30.07R
DODGE CENTER   CLOUDY    41  41 100 NE12      30.08S
PRESTON        CLOUDY    42  37  84 N8        30.07R
OWATONNA       CLOUDY    43  36  75 N12       30.10R
FARIBAULT      CLOUDY    43  36  75 N8        30.11S
$$

...ELSEWHERE IN MINNESOTA...


CITY           SKY/WX    TMP DP  RH WIND       PRES   REMARKS
MINNEAPOLIS    CLOUDY    42  33  70 NE9       30.15R
INTNL FALLS    CLEAR     33  29  85 CALM      30.30R
DULUTH         SUNNY     35  27  72 NE6       30.23R WCI  30
RED WING       CLOUDY    45  32  61 NE10      30.11R
REDWOOD FALLS  CLOUDY    39  30  70 N6        30.16R WCI  35
MANKATO        CLOUDY    43  34  70 N13       30.12R
WORTHINGTON    LGT RAIN  39  37  92 N16       30.12R WCI  30
FAIRMONT       CLOUDY    43  34  70 N13       30.09R
$$

...SOUTHWEST WISCONSIN...


CITY           SKY/WX    TMP DP  RH WIND       PRES   REMARKS
LA CROSSE      CLOUDY    47  35  63 N6        30.08R
PRAIRIE DU CHI CLOUDY    45  36  70 N5        30.04R
BOSCOBEL       CLOUDY    46  38  73 NE6       30.05R
LONE ROCK      CLOUDY    43  38  82 NE6       30.05R
PLATTEVILLE    CLOUDY    42  42  97 NE14      30.01R
FORT MC COY    CLOUDY    45  35  66 NE5       30.08R
CAMP DOUGLAS     N/A     44  41  87 NE5       30.06R
MAUSTON-NEW LI CLOUDY    44  35  73 CALM      30.06R
VIROQUA        CLOUDY    41  37  86 NE10      30.05R
WIS DELLS      CLOUDY    42  36  78 NE9       30.05R
$$

...ELSEWHERE IN WISCONSIN...


CITY           SKY/WX    TMP DP  RH WIND       PRES   REMARKS
MILWAUKEE      LGT RAIN  41  40  96 NE16G25   30.00R VSB 1
MADISON        DRIZZLE   42  40  92 NE13      30.02R FOG
GREEN BAY      LGT RAIN  43  38  82 NE13      30.08R
EAU CLAIRE     CLOUDY    42  34  73 NE9       30.12R
BLACK RVR FLS  CLOUDY    43  36  74 NE7       30.08S
MEDFORD        CLOUDY    38  34  84 NE8       30.10S WCI  32
WAUSAU         MOSUNNY   44  33  65 N5        30.08S
WIS RAPIDS     CLOUDY    44  33  65 NE7       30.08S
MARSHFIELD     CLOUDY    43  33  68 NE12      30.08R
RICE LAKE      CLOUDY    40  34  80 N9        30.17R WCI  33
$$

...NORTHEAST IOWA...


CITY           SKY/WX    TMP DP  RH WIND       PRES   REMARKS
WATERLOO       CLOUDY    43  40  89 NE12      30.00S
DUBUQUE        CLOUDY    42  41  96 NE12      29.98S FOG
DECORAH        CLOUDY    43  39  87 NE10      30.04R
MASON CITY     CLOUDY    43  39  86 NE23G30   30.06R
CHARLES CITY   CLOUDY    45  41  87 NE16      30.04R
OELWEIN        CLOUDY    43  43 100 NE14      30.01R
$$

...ELSEWHERE IN IOWA...


CITY           SKY/WX    TMP DP  RH WIND       PRES   REMARKS
DES MOINES     CLOUDY    46  42  86 NE10      29.97R
IOWA CITY      CLOUDY    46  44  93 NE10      29.98R
FORT DODGE     CLOUDY    43  37  81 NE12G20   30.02R
MARSHALLTOWN   CLOUDY    44  42  93 NE14      29.98R
CEDAR RAPIDS   CLOUDY    45  45 100 NE12      29.96R
$$

...NORTHERN ILLINOIS...


CITY           SKY/WX    TMP DP  RH WIND       PRES   REMARKS
CHICAGO-OHARE  FOG       42  42 100 N13       29.96R VSB 1/4
CHICAGO-MIDWAY FOG       45  43  93 N10       29.95R VSB 1
MOLINE         CLOUDY    48  45  89 NE8       29.95R FOG
ROCKFORD       CLOUDY    46  43  89 NE14      29.99R
PEORIA         FOG       49  47  93 NE7       29.93R VSB 1
$$

NOTE: "FAIR" INDICATES FEW OR NO CLOUDS BELOW 12,000 FEET WITH NO
SIGNIFICANT WEATHER AND/OR OBSTRUCTIONS TO VISIBILITY. WIND
SPEEDS ARE IN MILES-PER-HOUR.




USA.gov is the U.S. government's official web portal to all federal, state and local government web resources and services.